FW6610 Weather Reports


Display with metric or nautical units.
time (UTC)temp
F
wind
direction
speed
MPH
gust
MPH
rain 1hr
in
rain 24hr
in
rain mn
in
humidity
%
barometer
mb
20260507003530 58 276 0.0 6.0 0.05 0.28 0.28 96 1006.8
20260507003038 59 332 2.0 6.0 0.05 0.28 0.28 97 1006.7
20260507002529 59 346 1.0 3.0 0.03 0.26 0.26 97 1006.8
20260507002026 59 198 1.0 5.0 0.00 0.23 0.23 97 1006.4
20260507001555 59 146 1.0 5.0 0.00 0.23 0.23 97 1006.1
20260507001029 59 126 1.0 5.0 0.00 0.23 0.23 97 1006.1
20260507000529 59 158 1.0 5.0 0.00 0.23 0.23 97 1006.1
20260507000046 59 141 1.0 5.0 0.00 0.23 0.23 97 1006.0
20260506235530 59 150 1.0 5.0 0.00 0.23 0.23 97 1006.1
20260506235031 59 160 1.0 4.0 0.00 0.23 0.23 97 1006.0
20260506234546 59 145 1.0 4.0 0.00 0.23 0.23 97 1005.9
20260506234029 59 147 1.0 4.0 0.00 0.23 0.23 97 1005.8
20260506233530 59 136 0.0 4.0 0.00 0.23 0.23 97 1005.8
20260506233043 59 126 1.0 4.0 0.00 0.23 0.23 97 1005.8
20260506232529 59 142 1.0 4.0 0.00 0.23 0.23 97 1005.8
20260506232029 59 179 2.0 4.0 0.00 0.23 0.23 97 1005.8
20260506231542 59 145 1.0 4.0 0.00 0.23 0.23 97 1005.8
20260506231029 59 155 1.0 4.0 0.00 0.23 0.23 97 1005.7
20260506230530 59 145 2.0 4.0 0.00 0.23 0.23 96 1005.6
20260506230039 59 148 2.0 4.0 0.00 0.23 0.23 96 1005.6
20260506225531 59 181 1.0 3.0 0.01 0.23 0.23 96 1005.6
20260506225029 59 150 1.0 3.0 0.02 0.23 0.23 96 1005.7
20260506224538 59 154 1.0 4.0 0.02 0.23 0.23 96 1005.7
20260506224029 59 0 1.0 4.0 0.04 0.23 0.23 96 1005.7
20260506223529 59 0 1.0 3.0 0.05 0.23 0.23 96 1005.7
20260506223041 59 188 1.0 3.0 0.06 0.23 0.23 96 1005.8
20260506222526 59 0 1.0 3.0 0.07 0.23 0.23 96 1005.8
20260506222030 59 206 0.0 2.0 0.07 0.23 0.23 97 1005.7
20260506221544 59 175 0.0 4.0 0.07 0.23 0.23 97 1005.8
20260506221029 59 171 1.0 4.0 0.07 0.23 0.23 97 1005.7
20260506220529 59 186 0.0 3.0 0.07 0.23 0.23 96 1005.7
20260506220057 59 141 0.0 2.0 0.06 0.22 0.22 96 1005.7
20260506215529 59 152 0.0 2.0 0.06 0.22 0.22 96 1005.7
20260506215029 59 0 0.0 3.0 0.05 0.21 0.21 96 1005.9
20260506214542 59 128 0.0 3.0 0.05 0.21 0.21 96 1005.9
20260506214028 59 157 0.0 3.0 0.03 0.19 0.19 96 1005.8
20260506213532 59 153 1.0 3.0 0.02 0.18 0.18 96 1005.8
20260506213038 59 0 0.0 1.0 0.00 0.16 0.16 96 1005.7
20260506212532 59 0 0.0 2.0 0.01 0.16 0.16 96 1005.9
20260506212029 59 146 0.0 2.0 0.02 0.16 0.16 96 1005.9
20260506211537 59 147 0.0 2.0 0.02 0.16 0.16 96 1005.8
20260506211029 59 0 1.0 2.0 0.03 0.16 0.16 96 1005.9
20260506210531 59 168 0.0 2.0 0.03 0.16 0.16 96 1005.9
20260506210048 59 179 1.0 3.0 0.03 0.16 0.16 96 1006.0
20260506205528 59 133 0.0 4.0 0.03 0.16 0.16 96 1005.9
20260506205028 59 201 0.0 5.0 0.03 0.16 0.16 96 1005.8
20260506204544 59 145 1.0 5.0 0.03 0.16 0.16 95 1006.0
20260506204032 59 148 1.0 3.0 0.04 0.16 0.16 95 1005.9
20260506203529 59 134 1.0 5.0 0.04 0.16 0.16 96 1005.8
20260506203115 59 163 1.0 5.0 0.04 0.16 0.16 95 1005.9
20260506202530 59 141 1.0 5.0 0.03 0.15 0.15 95 1006.0
20260506202029 59 156 0.0 2.0 0.03 0.14 0.14 95 1006.1
20260506201546 59 144 0.0 2.0 0.03 0.14 0.14 95 1006.2
20260506201029 59 143 0.0 5.0 0.02 0.13 0.13 95 1006.3
20260506200529 59 147 1.0 5.0 0.02 0.13 0.13 95 1006.3
20260506200046 59 252 1.0 5.0 0.03 0.13 0.13 95 1006.2
20260506195529 59 138 1.0 3.0 0.04 0.13 0.13 95 1006.4
20260506195029 59 0 0.0 2.0 0.04 0.13 0.13 95 1006.5
20260506194538 59 219 0.0 2.0 0.05 0.13 0.13 95 1006.6
20260506194029 59 143 0.0 3.0 0.04 0.12 0.12 95 1006.7
20260506193528 59 226 0.0 3.0 0.04 0.12 0.12 95 1006.6
20260506193038 59 207 1.0 6.0 0.04 0.12 0.12 95 1006.8
20260506192529 60 197 2.0 6.0 0.05 0.12 0.12 94 1006.7
20260506192029 60 136 0.0 2.0 0.04 0.11 0.11 95 1006.8
20260506191545 60 139 1.0 3.0 0.04 0.11 0.11 94 1006.8
20260506191029 60 148 0.0 4.0 0.04 0.11 0.11 94 1006.8
20260506190529 60 147 1.0 4.0 0.04 0.11 0.11 94 1006.8
20260506190049 60 174 1.0 5.0 0.04 0.10 0.10 94 1006.8
20260506185531 60 143 1.0 5.0 0.03 0.09 0.09 94 1006.9
20260506185029 60 160 2.0 5.0 0.03 0.09 0.09 93 1007.0
20260506184552 60 114 1.0 3.0 0.02 0.08 0.08 93 1007.1
20260506184029 60 162 1.0 4.0 0.03 0.08 0.08 93 1007.1
20260506183529 60 150 1.0 4.0 0.03 0.08 0.08 93 1006.9
20260506183036 60 115 1.0 3.0 0.03 0.07 0.07 92 1007.0
20260506182528 61 203 1.0 4.0 0.03 0.07 0.07 92 1007.3
20260506182030 61 217 1.0 6.0 0.04 0.07 0.07 92 1007.3
20260506181537 61 139 1.0 6.0 0.05 0.07 0.07 91 1007.3
20260506181030 61 147 1.0 6.0 0.06 0.07 0.07 91 1007.3
20260506180530 62 192 0.0 3.0 0.07 0.07 0.07 92 1007.1
20260506180046 62 144 1.0 3.0 0.06 0.06 0.06 91 1007.0
20260506175529 62 143 1.0 4.0 0.06 0.06 0.06 91 1006.8
20260506175029 62 203 2.0 4.0 0.06 0.06 0.06 91 1007.1
20260506174546 62 150 1.0 2.0 0.06 0.06 0.06 90 1007.0
20260506174029 63 0 1.0 2.0 0.05 0.05 0.05 91 1007.0
20260506173530 63 146 0.0 3.0 0.05 0.05 0.05 91 1007.3
20260506173052 63 144 1.0 3.0 0.04 0.04 0.04 89 1007.6
20260506172529 64 148 0.0 3.0 0.03 0.03 0.03 89 1007.5
20260506172030 64 162 0.0 4.0 0.03 0.03 0.03 87 1007.7
20260506171538 64 155 1.0 4.0 0.02 0.02 0.02 85 1007.9
20260506171029 65 150 1.0 4.0 0.01 0.01 0.01 83 1008.1
20260506170531 66 147 0.0 2.0 0.00 0.00 0.00 84 1007.8
20260506170040 66 141 0.0 3.0 0.00 0.00 0.00 83 1007.8
20260506165529 66 141 0.0 3.0 0.00 0.00 0.00 80 1007.8
20260506165029 67 197 1.0 3.0 0.00 0.00 0.00 78 1007.9
20260506164545 67 169 0.0 2.0 0.00 0.00 0.00 78 1007.8
20260506164028 67 166 1.0 4.0 0.00 0.00 0.00 78 1007.8
20260506163528 67 153 1.0 4.0 0.00 0.00 0.00 77 1007.7
20260506163056 68 154 1.0 3.0 0.00 0.00 0.00 77 1007.7
20260506162528 68 124 1.0 3.0 0.00 0.00 0.00 77 1007.8
20260506162028 68 140 0.0 2.0 0.00 0.00 0.00 78 1007.8
20260506161544 67 204 0.0 4.0 0.00 0.00 0.00 79 1008.1
20260506161030 67 146 1.0 4.0 0.00 0.00 0.00 78 1008.2
20260506160530 67 137 1.0 4.0 0.00 0.00 0.00 78 1008.2
20260506160040 66 168 1.0 3.0 0.00 0.00 0.00 78 1008.4
20260506155529 66 134 1.0 2.0 0.00 0.00 0.00 78 1008.5
20260506155028 66 139 0.0 3.0 0.00 0.00 0.00 81 1008.5
20260506154548 65 134 0.0 3.0 0.00 0.00 0.00 80 1008.6
20260506154030 65 146 1.0 3.0 0.00 0.00 0.00 80 1008.8
20260506153530 65 140 0.0 2.0 0.00 0.00 0.00 81 1008.8
20260506153038 65 134 0.0 2.0 0.00 0.00 0.00 81 1008.7
20260506152529 64 139 1.0 4.0 0.00 0.00 0.00 80 1008.9
20260506152029 64 132 2.0 4.0 0.00 0.00 0.00 80 1009.0
20260506151540 65 125 1.0 4.0 0.00 0.00 0.00 80 1009.3
20260506151028 65 147 1.0 3.0 0.00 0.00 0.00 80 1009.3
20260506150529 64 204 1.0 3.0 0.00 0.00 0.00 80 1009.1
20260506150045 64 139 1.0 3.0 0.00 0.00 0.00 81 1009.3
20260506145529 64 161 1.0 4.0 0.00 0.00 0.00 81 1009.1
20260506145029 64 207 1.0 6.0 0.00 0.00 0.00 82 1009.3
20260506144545 64 225 2.0 6.0 0.00 0.00 0.00 81 1009.2
20260506144028 64 126 2.0 5.0 0.00 0.00 0.00 80 1009.2
20260506143530 64 131 1.0 4.0 0.00 0.00 0.00 81 1009.3
20260506143042 64 202 1.0 5.0 0.00 0.00 0.00 82 1009.3
20260506142529 64 143 1.0 5.0 0.00 0.00 0.00 81 1009.4
20260506142028 64 228 2.0 5.0 0.00 0.00 0.00 81 1009.4
20260506141539 64 150 1.0 4.0 0.00 0.00 0.00 81 1009.2
20260506141029 63 148 2.0 4.0 0.00 0.00 0.00 81 1009.2
20260506140529 63 184 2.0 8.0 0.00 0.00 0.00 81 1009.2
20260506140037 63 153 1.0 8.0 0.00 0.00 0.00 81 1009.3
20260506135526 63 125 4.0 8.0 0.00 0.00 0.00 80 1009.3
20260506135029 63 223 2.0 6.0 0.00 0.00 0.00 81 1009.3
20260506134545 63 223 2.0 6.0 0.00 0.00 0.00 82 1009.0
20260506134029 62 165 3.0 6.0 0.00 0.00 0.00 83 1009.1
20260506133528 62 185 1.0 6.0 0.00 0.00 0.00 83 1009.2
20260506133047 62 184 2.0 6.0 0.00 0.00 0.00 82 1009.2
20260506132525 62 177 2.0 5.0 0.00 0.00 0.00 82 1009.2
20260506132031 62 133 2.0 6.0 0.00 0.00 0.00 83 1009.1
20260506131543 62 165 1.0 6.0 0.00 0.00 0.00 83 1009.1
20260506131029 62 209 1.0 4.0 0.00 0.00 0.00 83 1009.2
20260506130529 62 152 1.0 4.0 0.00 0.00 0.00 83 1009.4
20260506130043 62 143 0.0 4.0 0.00 0.00 0.00 83 1009.3
20260506125529 62 0 0.0 2.0 0.00 0.00 0.00 84 1009.2
20260506125029 61 136 1.0 2.0 0.00 0.00 0.00 84 1009.3
20260506124545 61 152 0.0 3.0 0.00 0.00 0.00 84 1009.4
20260506124029 61 0 0.0 5.0 0.00 0.00 0.00 85 1009.6
20260506123529 61 223 2.0 5.0 0.00 0.00 0.00 85 1009.8
20260506123036 61 148 1.0 3.0 0.00 0.00 0.00 85 1009.6
20260506122527 60 0 0.0 3.0 0.00 0.00 0.00 86 1009.7
20260506122028 60 0 1.0 2.0 0.00 0.00 0.00 86 1009.7
20260506121538 60 150 0.0 2.0 0.00 0.00 0.00 86 1009.7
20260506121026 59 0 0.0 2.0 0.00 0.00 0.00 87 1009.9
20260506120526 59 139 0.0 2.0 0.00 0.00 0.00 87 1009.6
20260506120044 59 142 0.0 3.0 0.00 0.00 0.00 87 1009.8
20260506115525 59 150 1.0 3.0 0.00 0.00 0.00 87 1009.8
20260506115026 59 133 0.0 3.0 0.00 0.00 0.00 87 1009.7
20260506114543 59 169 1.0 3.0 0.00 0.00 0.00 88 1009.7
20260506114028 58 156 0.0 4.0 0.00 0.00 0.00 88 1009.7
20260506113527 58 183 1.0 5.0 0.00 0.00 0.00 88 1009.5
20260506113042 58 177 0.0 5.0 0.00 0.00 0.00 88 1009.7
20260506112532 58 244 1.0 3.0 0.00 0.00 0.00 88 1009.7
20260506112030 58 144 1.0 3.0 0.00 0.00 0.00 88 1009.7
20260506111542 58 218 1.0 3.0 0.00 0.00 0.00 88 1009.6
20260506111029 58 197 0.0 3.0 0.00 0.00 0.00 88 1009.7
20260506110529 58 140 1.0 5.0 0.00 0.00 0.00 89 1009.7
20260506110041 57 157 1.0 5.0 0.00 0.00 0.00 89 1009.9
20260506105529 57 190 0.0 2.0 0.00 0.00 0.00 89 1010.0
20260506105025 57 191 1.0 4.0 0.00 0.00 0.00 89 1010.0
20260506104537 57 150 0.0 4.0 0.00 0.00 0.00 89 1010.1
20260506104028 57 191 2.0 4.0 0.00 0.00 0.00 89 1009.9
20260506103526 57 164 1.0 4.0 0.00 0.00 0.00 89 1009.9
20260506103041 56 148 1.0 4.0 0.00 0.00 0.00 89 1010.0
20260506102530 56 192 1.0 2.0 0.00 0.00 0.00 89 1009.7
20260506102028 56 157 1.0 3.0 0.00 0.00 0.00 90 1009.8
20260506101549 56 148 0.0 3.0 0.00 0.00 0.00 89 1009.5
20260506101025 56 155 1.0 4.0 0.00 0.00 0.00 89 1009.4
20260506100528 56 210 2.0 4.0 0.00 0.00 0.00 89 1009.6
20260506100041 56 205 1.0 3.0 0.00 0.00 0.00 89 1009.6
20260506095529 56 205 2.0 4.0 0.00 0.00 0.00 89 1009.6
20260506095028 56 203 1.0 4.0 0.00 0.00 0.00 89 1009.5
20260506094542 56 201 1.0 2.0 0.00 0.00 0.00 89 1009.4
20260506094029 56 157 1.0 3.0 0.00 0.00 0.00 89 1009.4
20260506093529 56 152 1.0 3.0 0.00 0.00 0.00 89 1009.6
20260506093039 56 184 1.0 2.0 0.00 0.00 0.00 88 1009.7
20260506092527 56 188 1.0 3.0 0.00 0.00 0.00 88 1009.5
20260506092026 56 204 1.0 3.0 0.00 0.00 0.00 88 1009.6
20260506091538 57 175 1.0 3.0 0.00 0.00 0.00 88 1009.5
20260506091029 57 207 1.0 2.0 0.00 0.00 0.00 87 1009.5
20260506090525 57 165 1.0 3.0 0.00 0.00 0.00 87 1009.5
20260506090046 57 201 1.0 3.0 0.00 0.00 0.00 87 1009.6
20260506085525 57 171 1.0 2.0 0.00 0.00 0.00 87 1009.6
20260506085025 57 162 1.0 6.0 0.00 0.00 0.00 86 1009.5
20260506084545 57 200 1.0 6.0 0.00 0.00 0.00 86 1009.5
20260506084028 57 164 1.0 3.0 0.00 0.00 0.00 86 1009.5
20260506083531 57 178 1.0 3.0 0.00 0.00 0.00 86 1009.5
20260506083043 57 199 1.0 3.0 0.00 0.00 0.00 86 1009.6
20260506082530 57 0 1.0 3.0 0.00 0.00 0.00 86 1009.5
20260506082026 57 176 1.0 3.0 0.00 0.00 0.00 86 1009.5
20260506081543 57 150 0.0 2.0 0.00 0.00 0.00 86 1009.5
20260506081029 57 160 0.0 2.0 0.00 0.00 0.00 86 1009.5
20260506080529 57 158 0.0 2.0 0.00 0.00 0.00 85 1009.5
20260506073045 58 167 0.0 3.0 0.00 0.00 0.00 84 1009.6
20260506072530 58 147 1.0 3.0 0.00 0.00 0.00 83 1009.5
20260506072029 58 195 1.0 2.0 0.00 0.00 0.00 83 1009.5
20260506071541 58 156 0.0 2.0 0.00 0.00 0.00 83 1009.5
20260506071028 58 150 1.0 2.0 0.00 0.00 0.00 82 1009.5
20260506070528 58 154 0.0 3.0 0.00 0.00 0.00 82 1009.6
20260506062026 59 0 0.0 0.0 0.00 0.00 0.00 80 1009.4
20260506061548 59 0 0.0 0.0 0.00 0.00 0.00 79 1009.3
20260506061031 59 0 0.0 0.0 0.00 0.00 0.00 79 1009.3
20260506060525 59 0 0.0 0.0 0.00 0.00 0.00 78 1009.3
20260506051026 61 155 0.0 2.0 0.00 0.00 0.00 75 1009.6
20260506050526 61 0 0.0 3.0 0.00 0.00 0.00 75 1009.5
20260506045025 61 131 0.0 2.0 0.00 0.00 0.00 75 1009.6
20260506044543 61 153 0.0 2.0 0.00 0.00 0.00 75 1009.6
20260506044029 61 0 0.0 2.0 0.00 0.00 0.00 75 1009.6
20260506043525 61 0 0.0 2.0 0.00 0.00 0.00 75 1009.7
20260506043041 61 0 0.0 2.0 0.00 0.00 0.00 74 1009.8
20260506042529 61 197 0.0 1.0 0.00 0.00 0.00 74 1009.7
20260506042029 61 149 0.0 4.0 0.00 0.00 0.00 74 1009.7
20260506041557 61 165 0.0 4.0 0.00 0.00 0.00 74 1009.7
20260506041025 61 0 1.0 4.0 0.00 0.00 0.00 74 1009.6
20260506040529 61 176 0.0 2.0 0.00 0.00 0.00 73 1009.7
20260506040041 62 172 0.0 2.0 0.00 0.00 0.00 73 1009.7
20260506035525 62 153 0.0 4.0 0.00 0.00 0.00 73 1009.7
20260506035025 62 169 0.0 4.0 0.00 0.00 0.00 73 1009.7
20260506034548 62 167 0.0 3.0 0.00 0.00 0.00 73 1009.8
20260506034030 62 154 0.0 1.0 0.00 0.00 0.00 72 1009.8
20260506033529 62 199 0.0 3.0 0.00 0.00 0.00 72 1009.8
20260506033038 62 0 0.0 6.0 0.00 0.00 0.00 72 1009.8
20260506032526 62 135 1.0 6.0 0.00 0.00 0.00 71 1009.8
20260506032027 62 160 0.0 3.0 0.00 0.00 0.00 71 1009.6
20260506031543 62 184 1.0 3.0 0.00 0.00 0.00 71 1009.7
20260506031025 63 146 0.0 2.0 0.00 0.00 0.00 70 1009.7
20260506030528 63 151 0.0 3.0 0.00 0.00 0.00 70 1009.7
20260506030043 63 171 1.0 3.0 0.00 0.00 0.00 70 1009.6
20260506025604 63 157 0.0 3.0 0.00 0.00 0.00 70 1009.7
20260506025028 63 162 1.0 3.0 0.00 0.00 0.00 69 1009.7
20260506024540 63 160 0.0 4.0 0.00 0.00 0.00 69 1009.7
20260506024025 64 153 0.0 4.0 0.00 0.00 0.00 69 1009.6
20260506023527 64 219 1.0 3.0 0.00 0.00 0.00 69 1009.6
20260506023043 64 156 1.0 2.0 0.00 0.00 0.00 69 1009.6
20260506022528 64 156 1.0 2.0 0.00 0.00 0.00 69 1009.6
20260506022028 64 147 0.0 2.0 0.00 0.00 0.00 69 1009.5
20260506021538 64 161 0.0 2.0 0.00 0.00 0.00 69 1009.5
20260506021028 65 157 1.0 2.0 0.00 0.00 0.00 68 1009.5
20260506020528 65 150 0.0 4.0 0.00 0.00 0.00 68 1009.4
20260506020051 65 151 0.0 4.0 0.00 0.00 0.00 68 1009.4
20260506015526 65 128 1.0 4.0 0.00 0.00 0.00 67 1009.4
20260506015029 65 213 0.0 3.0 0.00 0.00 0.00 67 1009.4
20260506014544 65 164 1.0 2.0 0.00 0.00 0.00 67 1009.5
20260506014025 65 157 0.0 2.0 0.00 0.00 0.00 68 1009.4
20260506013525 65 148 1.0 2.0 0.00 0.00 0.00 67 1009.4
20260506013052 66 0 0.0 2.0 0.00 0.00 0.00 67 1009.2
20260506012527 66 162 1.0 3.0 0.00 0.00 0.00 66 1009.3
20260506012026 66 195 0.0 3.0 0.00 0.00 0.00 66 1009.2
20260506011545 67 135 1.0 3.0 0.00 0.00 0.00 65 1009.1
20260506011025 67 106 1.0 4.0 0.00 0.00 0.00 65 1009.1
20260506010530 67 150 0.0 5.0 0.00 0.00 0.00 64 1009.2
20260506010040 67 120 0.0 5.0 0.00 0.00 0.00 64 1009.1
20260506005528 68 253 1.0 5.0 0.00 0.00 0.00 63 1008.9
20260506005026 68 0 1.0 5.0 0.00 0.00 0.00 63 1008.9
20260506004546 68 150 2.0 5.0 0.00 0.00 0.00 62 1008.9
20260506004026 68 140 1.0 5.0 0.00 0.00 0.00 62 1008.8